Bookmark and Share
Track history (hours):
 

Majesty of the Seas (Bahamas)

Last reported at 2014-Apr-22 00:20 UTC. Time now 2014-Apr-23 15:44 UTC.
Position N 25°60' W 079°30'.

Length 268 m; draft 7.8 m.

Type: Passenger vessel. MMSI: 311734000.

NotesDate/timePositionNaut miles runAvg speedWind from/ knotsBaromVisibWave heightAir tempDewpointWater temp
2014-Apr-22 00:20N 25°60' W 079°30'1013.5
2014-Apr-21 23:33N 25°56' W 079°40'1313.4
2014-Apr-21 22:33N 25°51' W 079°54'1211.8
2014-Apr-21 21:33N 25°46' W 080°06'4 4.4
2014-Apr-21 20:32N 25°47' W 080°11'0 0.0
2014-Apr-21 19:32N 25°47' W 080°11'0 0.0
2014-Apr-21 18:29N 25°47' W 080°11'0 0.0
2014-Apr-21 16:32N 25°47' W 080°11'0 0.0
2014-Apr-21 15:32N 25°47' W 080°11'0 0.0
2014-Apr-21 14:32N 25°47' W 080°11'0 0.0
2014-Apr-21 12:26N 25°47' W 080°11'0 0.0
2014-Apr-21 11:32N 25°47' W 080°11'0 0.3
2014-Apr-21 10:33N 25°47' W 080°10'9 9.2
2014-Apr-21 09:34N 25°47' W 080°00'1313.3
2014-Apr-21 08:33N 25°53' W 079°47'1414.5
2014-Apr-21 07:33N 25°59' W 079°33'2515.9
2014-Apr-21 06:00N 26°06' W 079°06'   330 / 151016.1 22.016.3
2014-Apr-19 00:17N 26°02' W 079°36'810.8
2014-Apr-18 23:33N 25°57' W 079°44'1110.7
2014-Apr-18 22:33N 25°52' W 079°54'10 9.9
2014-Apr-18 21:33N 25°47' W 080°04'6 3.2
2014-Apr-18 19:32N 25°47' W 080°11'0 0.0
2014-Apr-18 16:23N 25°47' W 080°11'0 0.0
2014-Apr-18 15:32N 25°47' W 080°11'0 0.0
2014-Apr-18 11:20N 25°47' W 080°11'0 0.4
2014-Apr-18 10:31N 25°47' W 080°11'6 6.1
2014-Apr-18 09:33N 25°47' W 080°05'9 9.4
2014-Apr-18 08:33N 25°41' W 079°56'1414.5
2014-Apr-18 07:33N 25°27' W 079°52'10 0.4
2014-Apr-17 04:06N 25°35' W 079°44'2415.3
2014-Apr-17 02:33N 25°52' W 079°26'72 1.6
2014-Apr-15 06:00N 25°54' W 078°06'8611.5 130 / 131014.1 24.021.1
2014-Apr-14 22:34N 25°56' W 079°41'1615.6
2014-Apr-14 21:34N 25°50' W 079°57'1111.3
2014-Apr-14 20:34N 25°46' W 080°09'2 2.0
2014-Apr-14 19:33N 25°47' W 080°11'0 0.0
2014-Apr-14 18:33N 25°47' W 080°11'0 0.0
2014-Apr-14 17:33N 25°47' W 080°11'0 0.0
2014-Apr-14 16:33N 25°47' W 080°11'0 0.0
2014-Apr-14 15:33N 25°47' W 080°11'0 0.0
2014-Apr-14 14:33N 25°47' W 080°11'0 0.0
2014-Apr-14 11:33N 25°47' W 080°11'0 0.0
2014-Apr-14 09:30N 25°47' W 080°11'7 7.0
2014-Apr-14 08:34N 25°46' W 080°03'1211.9
2014-Apr-14 07:33N 25°51' W 079°51'1414.3
2014-Apr-14 06:33N 25°57' W 079°37'1514.6
2014-Apr-14 05:33N 26°04' W 079°22'10518.8
2014-Apr-14 00:00N 25°36' W 077°30'6 0.2 070 / 201015.510.8 25.021.422.7
2014-Apr-13 00:00N 25°42' W 077°30'114 4.9
2014-Apr-12 00:33N 26°03' W 079°35'  

Dump ship's entire track history

sailing weather and tide predictions

Majesty of the Seas — C6FZ8 — position and weather